OK,128,19,873,128,2014-10-01T01:40:00,0,28072643,185422
OK,128,19,873,128,2014-10-01T01:45:00,0,28073090,185422
OK,128,19,873,128,2014-10-01T01:50:00,0,28073538,185422
OK,128,19,873,128,2014-10-01T01:55:00,0,28073856,185422
OK,128,19,873,128,2014-10-01T02:00:00,0,28074305,185422
OK,128,19,873,128,2014-10-01T02:05:00,0,28074746,185422
OK,128,19,873,128,2014-10-01T02:10:00,0,28075194,185422
OK,128,19,873,128,2014-10-01T02:15:00,0,28075643,185422
OK,128,19,873,128,2014-10-01T02:20:00,0,28076030,185422
OK,128,19,873,128,2014-10-01T02:25:00,0,28076475,185422
OK,128,19,873,128,2014-10-01T02:30:00,0,28076924,185422
OK,128,19,873,128,2014-10-01T02:35:00,0,28077373,185422
OK,128,19,873,128,2014-10-01T02:40:00,0,28077777,185422
OK,128,19,873,128,2014-10-01T02:45:00,0,28078225,185422
OK,128,19,873,128,2014-10-01T02:50:00,0,28078670,185422
OK,128,19,873,128,2014-10-01T02:55:00,0,28079119,185422
OK,40,63,873,40,2014-10-01T03:00:00,1,28079561,185422
OK,40,63,873,40,2014-10-01T03:05:00,0,28080010,185422
OK,40,63,873,40,2014-10-01T03:10:00,0,28080345,185422
OK,40,63,873,40,2014-10-01T03:15:00,0,28080793,185422
OK,82,30,873,82,2014-10-01T03:20:00,4,28081242,185422
OK,82,30,873,82,2014-10-01T03:25:00,0,28081689,185422
OK,82,30,873,82,2014-10-01T03:30:00,0,28082138,185422
OK,55,46,873,55,2014-10-01T03:35:00,1,28082573,185422
OK,51,49,873,51,2014-10-01T03:40:00,2,28083003,185422
OK,47,54,873,47,2014-10-01T03:45:00,1,28083452,185422
OK,47,54,873,47,2014-10-01T03:50:00,0,28083901,185422
OK,47,54,873,47,2014-10-01T03:55:00,0,28084343,185422
OK,74,34,873,74,2014-10-01T04:00:00,1,28084770,185422
OK,42,60,873,42,2014-10-01T04:05:00,1,28085216,185422
OK,42,60,873,42,2014-10-01T04:10:00,0,28085661,185422
OK,46,55,873,46,2014-10-01T04:15:00,1,28086110,185422
OK,46,55,873,46,2014-10-01T04:20:00,1,28086552,185422
OK,46,55,873,46,2014-10-01T04:25:00,0,28087001,185422
OK,46,55,873,46,2014-10-01T04:30:00,0,28087446,185422
OK,114,22,873,114,2014-10-01T04:35:00,2,28087895,185422
OK,111,22,873,111,2014-10-01T04:40:00,3,28088321,185422
OK,90,28,873,90,2014-10-01T04:45:00,2,28088768,185422
OK,76,33,873,76,2014-10-01T04:50:00,1,28089199,185422
OK,104,24,873,104,2014-10-01T04:55:00,2,28089647,185422
OK,133,19,873,133,2014-10-01T05:05:00,2,28090096,185422
OK,99,25,873,99,2014-10-01T05:10:00,2,28090889,185422
OK,114,22,873,114,2014-10-01T05:15:00,2,28091338,185422
OK,38,66,873,38,2014-10-01T05:20:00,1,28091756,185422
OK,38,66,873,38,2014-10-01T05:25:00,0,28092204,185422
OK,110,23,873,110,2014-10-01T05:30:00,1,28092649,185422
OK,110,23,873,110,2014-10-01T05:35:00,1,28093089,185422
OK,110,23,873,110,2014-10-01T05:40:00,0,28093520,185422
OK,215,11,873,215,2014-10-01T05:45:00,2,28093969,185422
OK,188,13,873,188,2014-10-01T05:50:00,3,28094383,185422
OK,105,24,873,105,2014-10-01T05:55:00,1,28094825,185422
OK,105,24,873,105,2014-10-01T06:00:00,0,28095272,185422
OK,101,25,873,101,2014-10-01T06:05:00,1,28095721,185422
OK,101,25,873,101,2014-10-01T06:10:00,3,28096135,185422
OK,104,24,873,104,2014-10-01T06:15:00,1,28096583,185422
OK,94,27,873,94,2014-10-01T06:20:00,2,28097018,185422
OK,103,24,873,103,2014-10-01T06:25:00,2,28097466,185422
OK,122,20,873,122,2014-10-01T06:30:00,1,28097915,185422
OK,122,20,873,122,2014-10-01T06:35:00,0,28098354,185422
OK,122,20,873,122,2014-10-01T06:40:00,0,28098796,185422
OK,129,19,873,129,2014-10-01T06:45:00,4,28099244,185422
OK,112,22,873,112,2014-10-01T06:50:00,2,28099588,185422
OK,72,35,873,72,2014-10-01T06:55:00,3,28100036,185422
OK,72,35,873,72,2014-10-01T07:00:00,1,28100344,185422
OK,72,35,873,72,2014-10-01T07:05:00,0,28100792,185422
OK,111,22,873,111,2014-10-01T07:10:00,1,28101163,185422
OK,105,24,873,105,2014-10-01T07:15:00,2,28101612,185422
OK,126,20,873,126,2014-10-01T07:20:00,2,28102049,185422
OK,154,16,873,154,2014-10-01T07:25:00,1,28102497,185422
OK,103,24,873,103,2014-10-01T07:30:00,3,28102928,185422
OK,103,24,873,103,2014-10-01T07:35:00,3,28103371,185422
OK,101,25,873,101,2014-10-01T07:40:00,1,28103816,185422
OK,101,25,873,101,2014-10-01T07:45:00,0,28104261,185422
OK,92,27,873,92,2014-10-01T07:50:00,3,28104703,185422
OK,92,27,873,92,2014-10-01T07:55:00,3,28105147,185422
OK,77,32,873,77,2014-10-01T08:00:00,2,28105588,185422
OK,96,26,873,96,2014-10-01T08:05:00,6,28106036,185422
OK,91,27,873,91,2014-10-01T08:10:00,6,28106473,185422
OK,79,32,873,79,2014-10-01T08:15:00,4,28106880,185422
OK,89,28,873,89,2014-10-01T08:20:00,2,28107311,185422
OK,95,26,873,95,2014-10-01T08:25:00,0,28107760,185422
OK,95,26,873,95,2014-10-01T08:30:00,0,28108199,185422
OK,95,26,873,95,2014-10-01T08:35:00,0,28108648,185422
OK,100,25,873,100,2014-10-01T08:40:00,1,28109077,185422
OK,90,28,873,90,2014-10-01T08:45:00,3,28109525,185422
OK,70,36,873,70,2014-10-01T08:50:00,1,28109868,185422
OK,123,20,873,123,2014-10-01T08:55:00,4,28110317,185422
OK,106,23,873,106,2014-10-01T09:00:00,3,28110740,185422
OK,73,34,873,73,2014-10-01T09:05:00,3,28111189,185422
OK,73,34,873,73,2014-10-01T09:10:00,3,28111618,185422
OK,68,37,873,68,2014-10-01T09:15:00,1,28112067,185422
OK,68,37,873,68,2014-10-01T09:20:00,0,28112408,185422
OK,73,34,873,73,2014-10-01T09:25:00,2,28112857,185422
OK,110,23,873,110,2014-10-01T09:30:00,1,28113281,185422
OK,125,20,873,125,2014-10-01T09:35:00,2,28113730,185422
OK,102,24,873,102,2014-10-01T09:40:00,2,28114162,185422
OK,63,40,873,63,2014-10-01T09:45:00,0,28114611,185422
OK,97,26,873,97,2014-10-01T09:50:00,1,28114965,185422
OK,99,25,873,99,2014-10-01T09:55:00,4,28115414,185422
OK,109,23,873,109,2014-10-01T10:00:00,3,28115827,185422
OK,96,26,873,96,2014-10-01T10:05:00,2,28116275,185422
OK,87,29,873,87,2014-10-01T10:10:00,4,28116684,185422
OK,89,28,873,89,2014-10-01T10:15:00,2,28117132,185422
OK,94,27,873,94,2014-10-01T10:20:00,1,28117557,185422
OK,94,27,873,94,2014-10-01T10:25:00,1,28118006,185422
OK,94,27,873,94,2014-10-01T10:30:00,0,28118451,185422
OK,91,27,873,91,2014-10-01T10:35:00,1,28118898,185422
OK,86,29,873,86,2014-10-01T10:40:00,5,28119342,185422
OK,84,30,873,84,2014-10-01T10:45:00,4,28119790,185422
OK,94,27,873,94,2014-10-01T10:50:00,2,28120238,185422
OK,94,27,873,94,2014-10-01T10:55:00,4,28120687,185422
OK,68,37,873,68,2014-10-01T11:00:00,4,28121070,185422
OK,72,35,873,72,2014-10-01T11:05:00,3,28121519,185422
OK,60,42,873,60,2014-10-01T11:10:00,4,28121957,185422
OK,73,34,873,73,2014-10-01T11:15:00,3,28122406,185422
OK,73,34,873,73,2014-10-01T11:20:00,1,28122847,185422
OK,91,27,873,91,2014-10-01T11:25:00,1,28123296,185422
OK,125,20,873,125,2014-10-01T11:30:00,2,28123728,185422
OK,104,24,873,104,2014-10-01T11:35:00,4,28124177,185422
OK,74,34,873,74,2014-10-01T11:40:00,2,28124580,185422
OK,146,17,873,146,2014-10-01T11:45:00,4,28125028,185422
OK,122,20,873,122,2014-10-01T11:50:00,7,28125457,185422
OK,74,34,873,74,2014-10-01T11:55:00,4,28125906,185422
OK,51,49,873,51,2014-10-01T12:00:00,3,28126258,185422
OK,64,39,873,64,2014-10-01T12:05:00,2,28126707,185422
OK,55,46,873,55,2014-10-01T12:10:00,1,28127156,185422
OK,60,42,873,60,2014-10-01T12:15:00,3,28127605,185422
OK,81,31,873,81,2014-10-01T12:20:00,2,28128033,185422
OK,101,25,873,101,2014-10-01T12:25:00,4,28128482,185422
OK,101,25,873,101,2014-10-01T12:30:00,2,28128917,185422
OK,96,26,873,96,2014-10-01T12:35:00,0,28129366,185422
OK,96,26,873,96,2014-10-01T12:40:00,0,28129800,185422
OK,102,24,873,102,2014-10-01T12:45:00,5,28130249,185422
OK,112,22,873,112,2014-10-01T12:50:00,7,28130677,185422
OK,166,15,873,166,2014-10-01T12:55:00,5,28131126,185422
OK,165,15,873,165,2014-10-01T13:00:00,3,28131563,185422
OK,165,15,873,165,2014-10-01T13:05:00,0,28132012,185422
OK,165,15,873,165,2014-10-01T13:10:00,0,28132450,185422
OK,146,17,873,146,2014-10-01T13:15:00,1,28132897,185422
OK,146,17,873,146,2014-10-01T13:20:00,5,28133335,185422
OK,156,16,873,156,2014-10-01T13:25:00,5,28133784,185422
OK,150,16,873,150,2014-10-01T13:30:00,2,28134223,185422
OK,166,15,873,166,2014-10-01T13:35:00,0,28134672,185422
OK,166,15,873,166,2014-10-01T13:40:00,0,28135091,185422
OK,139,18,873,139,2014-10-01T13:45:00,2,28135540,185422
OK,125,20,873,125,2014-10-01T13:50:00,1,28135977,185422
OK,125,20,873,125,2014-10-01T13:55:00,0,28136426,185422
OK,107,23,873,107,2014-10-01T14:00:00,4,28136866,185422
OK,107,23,873,107,2014-10-01T14:05:00,4,28137315,185422
OK,108,23,873,108,2014-10-01T14:10:00,0,28137749,185422
OK,108,23,873,108,2014-10-01T14:15:00,0,28138198,185422
OK,243,10,873,243,2014-10-01T14:20:00,1,28138626,185422
OK,243,10,873,243,2014-10-01T14:25:00,1,28139075,185422
OK,243,10,873,243,2014-10-01T14:30:00,0,28139486,185422
OK,121,20,873,121,2014-10-01T14:35:00,2,28139935,185422
OK,121,20,873,121,2014-10-01T14:40:00,4,28140377,185422
OK,146,17,873,146,2014-10-01T14:45:00,2,28140826,185422
OK,146,17,873,146,2014-10-01T14:50:00,0,28141252,185422
OK,47,54,873,47,2014-10-01T14:55:00,1,28141701,185422
OK,47,54,873,47,2014-10-01T15:00:00,1,28142129,185422
OK,87,29,873,87,2014-10-01T15:05:00,2,28142578,185422
OK,77,32,873,77,2014-10-01T15:10:00,1,28143005,185422
OK,165,15,873,165,2014-10-01T15:15:00,1,28143454,185422
OK,165,15,873,165,2014-10-01T15:20:00,1,28143902,185422
OK,165,15,873,165,2014-10-01T15:25:00,0,28144351,185422
OK,165,15,873,165,2014-10-01T15:30:00,0,28144773,185422
OK,84,30,873,84,2014-10-01T15:35:00,1,28145186,185422
OK,84,30,873,84,2014-10-01T15:40:00,1,28145635,185422
OK,91,27,873,91,2014-10-01T15:45:00,1,28146084,185422
OK,91,27,873,91,2014-10-01T15:50:00,1,28146533,185422
OK,91,27,873,91,2014-10-01T15:55:00,0,28146943,185422
OK,91,27,873,91,2014-10-01T16:00:00,0,28147385,185422
OK,91,27,873,91,2014-10-01T16:05:00,0,28147834,185422
OK,91,27,873,91,2014-10-01T16:10:00,0,28148235,185422
OK,91,27,873,91,2014-10-01T16:15:00,2,28148684,185422
OK,98,25,873,98,2014-10-01T16:20:00,4,28149123,185422
OK,94,27,873,94,2014-10-01T16:25:00,4,28149572,185422
OK,99,25,873,99,2014-10-01T16:30:00,2,28149998,185422
OK,99,25,873,99,2014-10-01T16:35:00,2,28150447,185422
OK,94,27,873,94,2014-10-01T16:40:00,1,28150865,185422
OK,94,27,873,94,2014-10-01T16:45:00,1,28151314,185422
OK,94,27,873,94,2014-10-01T16:50:00,0,28151763,185422
OK,102,24,873,102,2014-10-01T17:00:00,2,28152212,185422
OK,77,32,873,77,2014-10-01T17:05:00,1,28152658,185422
OK,77,32,873,77,2014-10-01T17:10:00,1,28153105,185422
OK,77,32,873,77,2014-10-01T17:15:00,0,28153554,185422
OK,92,27,873,92,2014-10-01T17:20:00,1,28153965,185422
OK,92,27,873,92,2014-10-01T17:25:00,0,28154413,185422
OK,92,27,873,92,2014-10-01T17:30:00,0,28154855,185422
OK,92,27,873,92,2014-10-01T17:35:00,0,28155303,185422
OK,92,27,873,92,2014-10-01T17:40:00,0,28155722,185422
OK,92,27,873,92,2014-10-01T17:45:00,0,28156170,185422
OK,39,65,873,39,2014-10-01T17:50:00,1,28156619,185422
OK,123,20,873,123,2014-10-01T17:55:00,1,28157057,185422
OK,123,20,873,123,2014-10-01T18:00:00,1,28157487,185422
OK,123,20,873,123,2014-10-01T18:05:00,0,28157935,185422
OK,123,20,873,123,2014-10-01T18:10:00,0,28158379,185422
OK,108,23,873,108,2014-10-01T18:15:00,1,28158825,185422
OK,88,28,873,88,2014-10-01T18:20:00,2,28159271,185422
OK,68,37,873,68,2014-10-01T18:25:00,1,28159606,185422
OK,68,37,873,68,2014-10-01T18:30:00,0,28160055,185422
OK,68,37,873,68,2014-10-01T18:35:00,0,28160504,185422
OK,68,37,873,68,2014-10-01T18:40:00,0,28160942,185422
OK,41,61,873,41,2014-10-01T18:45:00,1,28161391,185422
OK,41,61,873,41,2014-10-01T18:50:00,1,28161808,185422
OK,41,61,873,41,2014-10-01T18:55:00,0,28162257,185422
OK,49,51,873,49,2014-10-01T19:00:00,1,28162654,185422
OK,98,25,873,98,2014-10-01T19:05:00,1,28163090,185422
OK,98,25,873,98,2014-10-01T19:10:00,0,28163538,185422
OK,85,29,873,85,2014-10-01T19:15:00,1,28163987,185422
OK,85,29,873,85,2014-10-01T19:20:00,1,28164418,185422
OK,36,70,873,36,2014-10-01T19:25:00,1,28164867,185422
OK,75,33,873,75,2014-10-01T19:30:00,1,28165292,185422
OK,87,29,873,87,2014-10-01T19:35:00,2,28165740,185422
OK,100,25,873,100,2014-10-01T19:40:00,1,28166181,185422
OK,100,25,873,100,2014-10-01T19:45:00,0,28166543,185422
OK,167,15,873,167,2014-10-01T19:50:00,1,28166992,185422
OK,167,15,873,167,2014-10-01T19:55:00,0,28167421,185422
OK,167,15,873,167,2014-10-01T20:00:00,0,28167855,185422
OK,167,15,873,167,2014-10-01T20:05:00,0,28168303,185422
OK,167,15,873,167,2014-10-01T20:10:00,0,28168748,185422
OK,167,15,873,167,2014-10-01T20:15:00,0,28169197,185422
OK,167,15,873,167,2014-10-01T20:20:00,0,28169645,185422
OK,167,15,873,167,2014-10-01T20:25:00,0,28170071,185422
OK,167,15,873,167,2014-10-01T20:30:00,0,28170516,185422
OK,167,15,873,167,2014-10-01T20:35:00,0,28170964,185422
OK,78,32,873,78,2014-10-01T20:40:00,1,28171401,185422
OK,78,32,873,78,2014-10-01T20:45:00,1,28171847,185422
OK,78,32,873,78,2014-10-01T20:50:00,0,28172295,185422
OK,78,32,873,78,2014-10-01T20:55:00,0,28172741,185422
OK,78,32,873,78,2014-10-01T21:00:00,0,28173187,185422
OK,78,32,873,78,2014-10-01T21:05:00,0,28173636,185422
OK,78,32,873,78,2014-10-01T21:10:00,0,28174077,185422
OK,117,21,873,117,2014-10-01T21:15:00,1,28174526,185422
OK,117,21,873,117,2014-10-01T21:20:00,0,28174952,185422
OK,117,21,873,117,2014-10-01T21:25:00,0,28175348,185422
OK,117,21,873,117,2014-10-01T21:30:00,0,28175797,185422
OK,117,21,873,117,2014-10-01T21:35:00,0,28176246,185422
OK,117,21,873,117,2014-10-01T21:40:00,0,28176695,185422
OK,117,21,873,117,2014-10-01T21:45:00,0,28177054,185422
OK,117,21,873,117,2014-10-01T21:50:00,0,28177491,185422
OK,117,21,873,117,2014-10-01T21:55:00,0,28177937,185422
OK,117,21,873,117,2014-10-01T22:00:00,0,28178386,185422
OK,117,21,873,117,2014-10-01T22:05:00,0,28178833,185422
OK,117,21,873,117,2014-10-01T22:10:00,0,28179267,185422
OK,117,21,873,117,2014-10-01T22:15:00,0,28179710,185422
OK,117,21,873,117,2014-10-01T22:20:00,0,28180157,185422
OK,117,21,873,117,2014-10-01T22:25:00,0,28180555,185422
OK,117,21,873,117,2014-10-01T22:30:00,0,28181004,185422
OK,117,21,873,117,2014-10-01T22:35:00,0,28181428,185422
OK,117,21,873,117,2014-10-01T22:40:00,0,28181876,185422
OK,114,22,873,114,2014-10-01T22:45:00,1,28182323,185422
OK,114,22,873,114,2014-10-01T22:50:00,1,28182772,185422
OK,114,22,873,114,2014-10-01T22:55:00,0,28183189,185422
OK,114,22,873,114,2014-10-01T23:00:00,0,28183622,185422
OK,114,22,873,114,2014-10-01T23:05:00,0,28184067,185422
OK,114,22,873,114,2014-10-01T23:10:00,0,28184516,185422
OK,75,33,873,75,2014-10-01T23:15:00,1,28184951,185422
OK,75,33,873,75,2014-10-01T23:20:00,1,28185399,185422
OK,75,33,873,75,2014-10-01T23:25:00,0,28185830,185422
OK,75,33,873,75,2014-10-01T23:30:00,0,28186222,185422
OK,75,33,873,75,2014-10-01T23:40:00,0,28187069,185422
OK,75,33,873,75,2014-10-01T23:55:00,0,28188401,185422
OK,88,28,873,88,2014-10-02T00:00:00,1,28188837,185422
OK,88,28,873,88,2014-10-02T00:05:00,0,28189286,185422
OK,88,28,873,88,2014-10-02T00:10:00,0,28189708,185422
OK,88,28,873,88,2014-10-02T00:15:00,0,28190157,185422
OK,88,28,873,88,2014-10-02T00:20:00,0,28190510,185422
OK,88,28,873,88,2014-10-02T00:25:00,0,28190959,185422
OK,88,28,873,88,2014-10-02T00:30:00,0,28191408,185422
OK,88,28,873,88,2014-10-02T00:35:00,0,28191714,185422
OK,88,28,873,88,2014-10-02T00:40:00,0,28192163,185422
OK,88,28,873,88,2014-10-02T00:45:00,0,28192596,185422
OK,88,28,873,88,2014-10-02T00:50:00,0,28193040,185422
OK,88,28,873,88,2014-10-02T00:55:00,0,28193407,185422
OK,88,28,873,88,2014-10-02T01:05:00,0,28194305,185422
OK,88,28,873,88,2014-10-02T01:15:00,0,28194754,185422
OK,88,28,873,88,2014-10-02T01:20:00,0,28195439,185422
OK,88,28,873,88,2014-10-02T01:30:00,0,28195888,185422
OK,88,28,873,88,2014-10-02T01:35:00,0,28196621,185422
OK,88,28,873,88,2014-10-02T01:40:00,0,28197044,185422
OK,88,28,873,88,2014-10-02T01:45:00,0,28197493,185422
OK,88,28,873,88,2014-10-02T01:50:00,0,28197941,185422
OK,88,28,873,88,2014-10-02T01:55:00,0,28198389,185422
OK,88,28,873,88,2014-10-02T02:00:00,0,28198838,185422
OK,88,28,873,88,2014-10-02T02:05:00,0,28199214,185422
OK,88,28,873,88,2014-10-02T02:10:00,0,28199652,185422
OK,88,28,873,88,2014-10-02T02:15:00,0,28200094,185422
OK,88,28,873,88,2014-10-02T02:20:00,0,28200537,185422
OK,88,28,873,88,2014-10-02T02:25:00,0,28200986,185422
OK,88,28,873,88,2014-10-02T02:30:00,0,28201417,185422
OK,88,28,873,88,2014-10-02T02:45:00,0,28202315,185422
OK,88,28,873,88,2014-10-02T02:50:00,0,28202757,185422
OK,88,28,873,88,2014-10-02T02:55:00,0,28203205,185422
OK,55,46,873,55,2014-10-02T03:00:00,1,28203640,185422
OK,55,46,873,55,2014-10-02T03:10:00,0,28204089,185422
OK,97,26,873,97,2014-10-02T03:25:00,1,28204538,185422
OK,97,26,873,97,2014-10-02T03:30:00,0,28204987,185422
OK,97,26,873,97,2014-10-02T03:35:00,0,28205415,185422
OK,97,26,873,97,2014-10-02T03:40:00,0,28205862,185422
OK,97,26,873,97,2014-10-02T03:45:00,0,28206245,185422
OK,97,26,873,97,2014-10-02T03:55:00,0,28207143,185422
OK,97,26,873,97,2014-10-02T04:00:00,0,28207563,185422
OK,97,26,873,97,2014-10-02T04:05:00,0,28208011,185422
OK,97,26,873,97,2014-10-02T04:10:00,0,28208438,185422
OK,97,26,873,97,2014-10-02T04:15:00,0,28208887,185422
OK,94,27,873,94,2014-10-02T04:20:00,2,28209325,185422
OK,87,29,873,87,2014-10-02T04:25:00,1,28209774,185422
OK,87,29,873,87,2014-10-02T04:30:00,0,28210197,185422
OK,87,29,873,87,2014-10-02T04:35:00,0,28210646,185422
OK,95,26,873,95,2014-10-02T04:40:00,4,28211071,185422
OK,100,25,873,100,2014-10-02T04:45:00,2,28211515,185422
OK,100,25,873,100,2014-10-02T04:50:00,0,28211893,185422
OK,79,32,873,79,2014-10-02T04:55:00,2,28212342,185422
OK,48,52,873,48,2014-10-02T05:00:00,0,28212771,185422
OK,157,16,873,157,2014-10-02T05:05:00,1,28213220,185422
OK,157,16,873,157,2014-10-02T05:10:00,0,28213658,185422
OK,157,16,873,157,2014-10-02T05:15:00,0,28214107,185422
OK,157,16,873,157,2014-10-02T05:20:00,0,28214521,185422
OK,93,27,873,93,2014-10-02T05:25:00,1,28214969,185422
OK,93,27,873,93,2014-10-02T05:30:00,0,28215385,185422
OK,93,27,873,93,2014-10-02T05:40:00,0,28215834,185422
OK,93,27,873,93,2014-10-02T05:45:00,0,28216613,185422
OK,93,27,873,93,2014-10-02T05:50:00,0,28217060,185422
OK,130,19,873,130,2014-10-02T05:55:00,3,28217509,185422
OK,114,22,873,114,2014-10-02T06:00:00,4,28217948,185422
OK,97,26,873,97,2014-10-02T06:05:00,2,28218397,185422
OK,93,27,873,93,2014-10-02T06:10:00,0,28218817,185422
OK,56,45,873,56,2014-10-02T06:15:00,5,28219266,185422
OK,51,49,873,51,2014-10-02T06:20:00,4,28219639,185422
OK,99,25,873,99,2014-10-02T06:25:00,4,28220088,185422
OK,97,26,873,97,2014-10-02T06:30:00,5,28220522,185422
OK,102,24,873,102,2014-10-02T06:35:00,5,28220971,185422
OK,106,23,873,106,2014-10-02T06:40:00,4,28221356,185422
OK,65,39,873,65,2014-10-02T06:45:00,2,28221638,185422
OK,69,36,873,69,2014-10-02T07:00:00,2,28222232,185422
OK,82,30,873,82,2014-10-02T07:05:00,4,28222681,185422
OK,75,33,873,75,2014-10-02T07:10:00,3,28223112,185422
OK,75,33,873,75,2014-10-02T07:15:00,0,28223548,185422
OK,75,33,873,75,2014-10-02T07:20:00,0,28223995,185422
OK,84,30,873,84,2014-10-02T07:25:00,5,28224350,185422
OK,71,35,873,71,2014-10-02T07:30:00,2,28224799,185422
OK,115,22,873,115,2014-10-02T07:35:00,1,28225248,185422
OK,115,22,873,115,2014-10-02T07:40:00,0,28225571,185422
OK,108,23,873,108,2014-10-02T07:50:00,7,28226460,185422
OK,114,22,873,114,2014-10-02T07:55:00,5,28226909,185422
OK,129,19,873,129,2014-10-02T08:00:00,0,28227325,185422
OK,66,38,873,66,2014-10-02T08:05:00,4,28227773,185422
OK,62,40,873,62,2014-10-02T08:10:00,0,28228132,185422
OK,103,24,873,103,2014-10-02T08:15:00,1,28228581,185422
OK,103,24,873,103,2014-10-02T08:20:00,0,28228992,185422
OK,114,22,873,114,2014-10-02T08:25:00,2,28229440,185422
OK,109,23,873,109,2014-10-02T08:30:00,0,28229790,185422
OK,71,35,873,71,2014-10-02T08:35:00,2,28230239,185422
OK,78,32,873,78,2014-10-02T08:40:00,0,28230608,185422
OK,78,32,873,78,2014-10-02T08:45:00,0,28231054,185422
OK,122,20,873,122,2014-10-02T08:50:00,4,28231477,185422
OK,107,23,873,107,2014-10-02T08:55:00,0,28231926,185422
OK,193,13,873,193,2014-10-02T09:00:00,2,28232268,185422
OK,193,13,873,193,2014-10-02T09:10:00,0,28232717,185422
OK,149,17,873,149,2014-10-02T09:15:00,0,28233166,185422
OK,149,17,873,149,2014-10-02T09:20:00,0,28233590,185422
OK,161,15,873,161,2014-10-02T09:25:00,2,28234039,185422
OK,161,15,873,161,2014-10-02T09:30:00,2,28234372,185422
OK,54,47,873,54,2014-10-02T09:35:00,1,28234821,185422
OK,54,47,873,54,2014-10-02T09:40:00,0,28235248,185422
OK,80,31,873,80,2014-10-02T09:45:00,5,28235697,185422
OK,85,29,873,85,2014-10-02T09:50:00,4,28236140,185422
OK,84,30,873,84,2014-10-02T09:55:00,1,28236587,185422
OK,84,30,873,84,2014-10-02T10:00:00,0,28236990,185422
OK,84,30,873,84,2014-10-02T10:05:00,0,28237438,185422
OK,71,35,873,71,2014-10-02T10:10:00,2,28237886,185422
OK,93,27,873,93,2014-10-02T10:15:00,2,28238333,185422
OK,92,27,873,92,2014-10-02T10:20:00,2,28238774,185422
OK,95,26,873,95,2014-10-02T10:25:00,1,28239223,185422
OK,95,26,873,95,2014-10-02T10:30:00,0,28239653,185422
OK,126,20,873,126,2014-10-02T10:35:00,2,28240102,185422
OK,103,24,873,103,2014-10-02T10:40:00,6,28240546,185422
OK,128,19,873,128,2014-10-02T10:45:00,5,28240995,185422
OK,178,14,873,178,2014-10-02T10:50:00,1,28241428,185422
OK,79,32,873,79,2014-10-02T10:55:00,4,28241875,185422
OK,80,31,873,80,2014-10-02T11:00:00,2,28242271,185422
OK,80,31,873,80,2014-10-02T11:05:00,0,28242720,185422
OK,53,47,873,53,2014-10-02T11:15:00,3,28243169,185422
OK,53,47,873,53,2014-10-02T11:20:00,0,28243932,185422
OK,53,47,873,53,2014-10-02T11:25:00,0,28244361,185422
OK,53,47,873,53,2014-10-02T11:30:00,0,28244810,185422
OK,89,28,873,89,2014-10-02T11:35:00,5,28245259,185422
OK,164,15,873,164,2014-10-02T11:40:00,2,28245665,185422
OK,164,15,873,164,2014-10-02T11:45:00,0,28246114,185422
OK,140,18,873,140,2014-10-02T11:50:00,1,28246551,185422
OK,114,22,873,114,2014-10-02T11:55:00,2,28247000,185422
OK,93,27,873,93,2014-10-02T12:00:00,3,28247446,185422
OK,90,28,873,90,2014-10-02T12:05:00,1,28247876,185422
OK,90,28,873,90,2014-10-02T12:10:00,0,28248325,185422
OK,104,24,873,104,2014-10-02T12:15:00,1,28248772,185422
OK,104,24,873,104,2014-10-02T12:20:00,0,28249200,185422
OK,78,32,873,78,2014-10-02T12:25:00,4,28249644,185422
OK,141,18,873,141,2014-10-02T12:30:00,2,28250063,185422
OK,143,17,873,143,2014-10-02T12:35:00,7,28250461,185422
OK,129,19,873,129,2014-10-02T12:45:00,4,28251241,185422
OK,162,15,873,162,2014-10-02T13:20:00,3,28251786,185422
OK,238,10,873,238,2014-10-02T13:30:00,2,28252370,185422
OK,238,10,873,238,2014-10-02T13:35:00,0,28252812,185422
OK,238,10,873,238,2014-10-02T13:40:00,0,28253229,185422
OK,78,32,873,78,2014-10-02T13:45:00,2,28253678,185422
OK,102,24,873,102,2014-10-02T13:50:00,1,28254083,185422
OK,124,20,873,124,2014-10-02T13:55:00,1,28254404,185422
OK,110,23,873,110,2014-10-02T14:10:00,4,28254981,185422
OK,174,14,873,174,2014-10-02T14:15:00,2,28255430,185422
OK,153,16,873,153,2014-10-02T14:20:00,0,28255858,185422
OK,153,16,873,153,2014-10-02T14:25:00,0,28256307,185422
OK,61,41,873,61,2014-10-02T14:30:00,1,28256735,185422
OK,98,25,873,98,2014-10-02T14:35:00,4,28257184,185422
OK,98,25,873,98,2014-10-02T14:40:00,4,28257625,185422
OK,142,17,873,142,2014-10-02T14:45:00,3,28258073,185422
OK,164,15,873,164,2014-10-02T14:50:00,2,28258506,185422
OK,143,17,873,143,2014-10-02T14:55:00,1,28258952,185422
OK,163,15,873,163,2014-10-02T15:00:00,1,28259401,185422
OK,147,17,873,147,2014-10-02T15:05:00,1,28259848,185422
OK,84,30,873,84,2014-10-02T15:10:00,2,28260281,185422
OK,74,34,873,74,2014-10-02T15:15:00,4,28260730,185422
OK,68,37,873,68,2014-10-02T15:20:00,3,28261170,185422
OK,66,38,873,66,2014-10-02T15:25:00,4,28261552,185422
OK,52,48,873,52,2014-10-02T15:30:00,1,28261982,185422
OK,108,23,873,108,2014-10-02T15:40:00,1,28262875,185422
OK,118,21,873,118,2014-10-02T15:45:00,2,28263313,185422
OK,118,21,873,118,2014-10-02T15:50:00,2,28263754,185422
OK,118,21,873,118,2014-10-02T15:55:00,0,28264156,185422